Regional Weather Roundup
Issued by NWS

Home | Current Version | Previous Version | Text Only | Print | Product List | Glossary Off
Versions: 1 2 3 4 5 6 7 8 9 10 11 12 13 14 15 16 17 18 19 20 21 22 23 24 25 26 27 28 29 30 31 32 33 34 35 36 37 38 39 40 41 42 43 44 45 46 47 48 49 50

592
ASUS43 KFSD 240002
RWRSD

WEATHER ROUNDUP FOR SOUTH DAKOTA
NATIONAL WEATHER SERVICE SIOUX FALLS SD
600 PM CST FRI FEB 23 2018

NOTE: "FAIR" INDICATES FEW OR NO CLOUDS BELOW 12,000 FEET WITH NO
SIGNIFICANT WEATHER AND/OR OBSTRUCTIONS TO VISIBILITY.


SDZ001>005-009-010-012>017-240100-
NORTHWEST AND NORTH CENTRAL SOUTH DAKOTA

CITY           SKY/WX    TMP DP  RH WIND       PRES   REMARKS
BUFFALO          N/A      7  -1  70 SE7       30.00F WCI  -5
FAITH            N/A      5   0  79 S14       30.13S WCI -12
MOBRIDGE       CLEAR      9   1  70 SE6       30.19R WCI  -1
$$

SDZ012>016-024>037-041>051-057-063-072>074-240100-
SOUTHWEST AND SOUTH CENTRAL SOUTH DAKOTA

CITY           SKY/WX    TMP DP  RH WIND       PRES   REMARKS
RAPID CTY ARPT CLEAR     15   5  64 SE15      30.08S WCI   0
PIERRE         NOT AVBL
CUSTER         CLEAR     21   0  39 S6        29.95S WCI  13
ELLSWORTH AFB  CLEAR     17   4  57 S17       30.06R WCI   1
PHILIP         CLEAR     11   4  73 CALM      30.19F
PINE RIDGE     MOCLDY    21  10  62 CALM      30.10S
SPEARFISH        N/A     18   5  57 CALM      30.00S
WINNER         FAIR      17   8  67 E3        30.25R
$$

SDZ004>011-016>023-039-040-240100-
NORTHEAST SOUTH DAKOTA

CITY           SKY/WX    TMP DP  RH WIND       PRES   REMARKS
ABERDEEN       CLEAR      6   1  80 SW8       30.28R WCI  -7
WATERTOWN      CLEAR     13  11  92 SW7       30.25R WCI   3
BROOKINGS      CLOUDY    17  14  88 W9        30.28R WCI   6
SISSETON         N/A     12   5  73 CALM      30.26R
$$

SDZ017-020-022-023-036>040-048>070-240100-
SOUTHEAST SOUTH DAKOTA

CITY           SKY/WX    TMP DP  RH WIND       PRES   REMARKS
SIOUX FALLS    CLOUDY    18  16  92 W6        30.30S WCI  10
HURON          CLEAR     15   9  76 SW3       30.30R
CHAMBERLAIN    CLEAR     11   5  79 CALM      30.28S
MITCHELL       CLEAR     16  10  77 SW6       30.32R WCI   7
YANKTON        CLEAR     16  12  84 NW7       30.30F WCI   6
$$

ABBREVIATIONS USED IN REMARKS
   TC - TEMPERATURE IN CELSIUS
  WCI - WIND CHILL INDEX
   HX - HEAT INDEX
  VSB - VISIBILITY





USA.gov is the U.S. government's official web portal to all federal, state and local government web resources and services.